Flag for U.S.A. Weather past 2 weeks in Wright, Florida, U.S.A.

Now
81 °F

Passing clouds.


Feels Like: 85 °F
Forecast: 74 / 86 °F
Wind: 2 mph from North

Location: Hurlburt Field

Current Time: Jul 24, 2014 at 12:11:02 AM

Latest Report: Jul 23, 2014 at 10:58 PM


Visibility: 10 mi

Pressure: 30.02 "Hg

Humidity: 71%

Dew point: 71 °F

Location of WrightLocation

Historic Weather in Wright — Graph

°F

Wright temperature yesterday

Maximum temperature yesterday: 87 °F (at 2:58 PM)
Minimum temperature yesterday: 73 °F (at 5:58 AM)
Average temperature yesterday: 82 °F

Past Weeks' High & Low Weather Summary

 TemperatureHumidityPressure
High90 °F (Jul 14, 2:58 PM)89% (Jul 13, 7:04 AM)30.14 "Hg (Jul 13, 7:04 AM)
Low65 °F (Jul 17, 5:58 AM)39% (Jul 16, 6:58 PM)29.87 "Hg (Jul 15, 6:58 PM)
Average80 °F71%30.02 "Hg
* Reported Jul 8 10:58 PM — Jul 23 10:58 PM, Wright, Weather by CustomWeather, © 2014

Note: Actual official high and low records may vary slightly from our data, if they occured in-between our weather recording intervals... More about our weather records

Advertising

Wright weather history for previous 24 hours

 ConditionsComfort  
Time TempWeatherWind HumidityBarometerVisibility
10:58 PM
Jul 23
81 °FPassing clouds.2 mph71%30.02 "Hg10 mi
9:58 PM81 °FClear.3 mph70%30.02 "Hg10 mi
8:58 PM80 °FClear.2 mph72%30.01 "Hg10 mi
7:58 PM80 °FClear.6 mph71%29.98 "Hg10 mi
6:58 PM82 °FSunny.6 mph65%29.97 "Hg10 mi
5:58 PM84 °FSunny.8 mph57%29.98 "Hg10 mi
4:58 PM85 °FPassing clouds.8 mph56%29.99 "Hg10 mi
3:58 PM85 °FPassing clouds.7 mph57%30.01 "Hg10 mi
2:58 PM87 °FSunny.12 mph57%30.04 "Hg10 mi
1:58 PM86 °FPassing clouds.12 mph61%30.06 "Hg10 mi
12:58 PM86 °FScattered clouds.12 mph62%30.07 "Hg10 mi
11:58 AM85 °FSunny.10 mph62%30.06 "Hg10 mi
10:58 AM85 °FSunny.7 mph61%30.06 "Hg10 mi
9:58 AM84 °FScattered clouds.6 mph65%30.07 "Hg10 mi
8:58 AM83 °FPassing clouds.3 mph69%30.07 "Hg10 mi
7:58 AM79 °FSunny.2 mph84%30.07 "Hg10 mi
5:58 AM73 °FClear.2 mph89%30.03 "Hg10 mi
4:58 AM74 °FClear.5 mph88%30.02 "Hg10 mi
3:58 AM75 °FClear.5 mph87%30.01 "Hg10 mi
12:58 AM76 °FPassing clouds.No wind85%30.03 "Hg10 mi
Weather by CustomWeather, © 2014

See weather overviewHow to use our weather pages